Content
SEND FEEDBACK

Daily
Averages
Monthly
Summary
Canada

VANCOUVER - UNIVERSITY, BRITISH COLUMBIA


Home > North America > Canada > British Columbia
Elevation: 249 feet     Latitude: 49 15N     Longitude: 123 15W

WEATHER
 
SELECT A DAY
Number of Records: 198,907;   Date Range: 1/1/95 - 11/26/14
 
SHARE

PRINT THIS DATA

[ ← Previous Day ]
WEATHER ALMANAC - JANUARY 29, 2013
[ Next Day → ]
[ °C ]   °F
Weather ElementAverageHighLow
Temperature41.8 °F43 °F (4:00 pm)41 °F (1:00 am)
Dewpoint28.5 °F39.2 °F (11:00 am) (7:00 pm)
Humidity85.9 %93 % (7:00 pm)74 % (4:00 am)
Wind Speed6.8 mph19.6 mph (2:00 am)
Weather ElementAverage
Visibility11.6 mi
Wind DirectionSE (140.6 °)

Weather ElementTotal
Precipitation---
Heating Degree Days23 (Base 65)
Averaged from 36 records on January 29, 2013
WEATHER CONDITIONS BREAKOUT
WIND DIRECTION BREAKOUT
WEATHER BY HOUR - JANUARY 29, 2013
[ °C ]   °F
Local TimeTemperatureDewpointHumidityBarometerVisibilityWind DirectionWind SpeedGust SpeedPrecipitationEventsConditions
1:00 AM41.0 °F37.4 °F87 %30.06 in15.0 miWest (280°)16.1 mphOvercast
2:00 AM41.0 °F35.6 °F81 %30.06 in15.0 miWest (270°)19.6 mphOvercast
3:00 AM41.0 °F37.4 °F87 %30.09 in15.0 miWest (270°)18.4 mphMostly Cloudy
4:00 AM42.0 °F36.0 °F74 %30.10 in15.0 miWest (260°)15.0 mphMostly Cloudy
4:00 AM41.0 °F37.4 °F87 %30.10 in15.0 miWest (260°)16.1 mphMostly Cloudy
5:00 AM41.0 °F37.4 °F87 %30.13 in15.0 miWest (270°)12.7 mphOvercast
6:00 AM41.0 °F37.4 °F87 %30.15 in15.0 miWNW (290°)13.8 mphOvercast
7:00 AM41.0 °F37.4 °F87 %30.17 in15.0 miNW (320°)6.9 mphOvercast
8:00 AM41.0 °F37.4 °F87 %30.21 in15.0 miNW (310°)6.9 mphMostly Cloudy
9:00 AM41.0 °F37.4 °F87 %30.23 in15.0 miNorth (360°)3.5 mphOvercast
10:00 AM42.0 °F37.0 °F77 %30.26 in15.0 miENE (70°)2.3 mphOvercast
10:00 AM41.0 °F37.4 °F87 %30.26 in15.0 miENE (70°)3.5 mphOvercast
10:07 AM42.8 °F0.0 °F12.0 miEast (90°)4.6 mphLight Drizzle
11:00 AM42.8 °F39.2 °F87 %30.27 in10.0 miEast (100°)4.6 mphLight Drizzle
11:16 AM42.8 °F0.0 °F10.0 miSE (130°)3.5 mphOvercast
12:00 PM42.8 °F39.2 °F87 %30.28 in10.0 miSE (130°)3.5 mphOvercast
1:00 PM42.8 °F37.4 °F81 %30.28 in10.0 miCalmOvercast
1:55 PM42.8 °F0.0 °F8.0 miSE (140°)3.5 mphLight Drizzle
2:00 PM42.8 °F37.4 °F81 %30.29 in8.0 miSE (140°)4.6 mphLight Drizzle
2:23 PM42.8 °F0.0 °F10.0 miESE (120°)5.8 mphOvercast
3:00 PM42.8 °F39.2 °F87 %30.29 in10.0 miEast (100°)4.6 mphOvercast
3:54 PM42.8 °F0.0 °F8.0 miEast (80°)5.8 mphRainLight Rain
4:00 PM43.0 °F39.0 °F82 %30.30 in7.0 miEast (90°)5.8 mphRainLight Rain
4:00 PM42.8 °F39.2 °F87 %30.30 in8.0 miEast (80°)5.8 mphRainLight Rain
5:00 PM42.8 °F39.2 °F87 %30.30 in8.0 miENE (70°)6.9 mphRainLight Rain
6:00 PM42.8 °F39.2 °F87 %30.30 in8.0 miNE (50°)5.8 mphRainLight Rain
7:00 PM41.0 °F39.2 °F93 %30.30 in8.0 miNE (50°)3.5 mphRainLight Rain
7:27 PM41.0 °F0.0 °F10.0 miNE (50°)5.8 mphOvercast
8:00 PM41.0 °F39.2 °F93 %30.29 in12.0 miEast (100°)3.5 mphOvercast
9:00 PM41.0 °F39.2 °F93 %30.30 in12.0 miNNE (30°)5.8 mphOvercast
10:00 PM41.0 °F38.0 °F85 %30.29 in12.0 miEast (80°)5.8 mphPartly Cloudy
10:00 PM41.0 °F37.4 °F87 %30.29 in12.0 miEast (80°)5.8 mphOvercast
10:24 PM41.0 °F0.0 °F12.0 miEast (80°)3.5 mphRainLight Rain
11:00 PM41.0 °F37.4 °F87 %30.29 in12.0 miEast (90°)3.5 mphRainLight Rain
11:27 PM41.0 °F0.0 °F12.0 miENE (70°)4.6 mphOvercast
11:49 PM41.0 °F0.0 °F10.0 miEast (80°)4.6 mphRainLight Rain
Hourly data recorded from CYVR, located miles away from Vancouver - University, British Columbia







STORIES FROM OUR PARTNERS